Volver al catálogo

THORAD DELTA 1 DEB

ActivoUNKNOWN
NORAD 8405·DEBRIS·🇺🇸 United States

Lanzado Nov 15, 1974 desde Vandenberg Space Force Base

Loading…

Próximos Pases (próximas 24 horas)

TLE

ActualizadoSource: Space-Track

Época: Sep 12, 2026, 15:43 UTC

1 08405U 74089CH  26255.65514621  .00000596  00000-0  10243-1 0  9996
2 08405 102.7194 142.6859 0702937  34.3662 330.0814 11.30715084140745

Sigue THORAD DELTA 1 DEB en tiempo real con AllMySat

Download on the App Store